<?xml version="1.0"?>
<gpx xmlns="http://www.topografix.com/GPX/1/1" xmlns:xsi="http://www.w3.org/2001/XMLSchema-instance" version="1.1" creator="GPX RubyGem 1.0.0 -- http://dougfales.github.io/gpx/" xsi:schemaLocation="http://www.topografix.com/GPX/1/1 http://www.topografix.com/GPX/1/1/gpx.xsd">
  <metadata>
    <name/>
    <time>2026-05-08T06:29:08+00:00</time>
    <bound minlat="90.0" minlon="180.0" maxlat="-90.0" maxlon="-180.0"/>
  </metadata>
  <trk>
    <name/>
    <trkseg>
      <trkpt lat="42.767962" lon="0.577687">
        <time>1970-01-01T00:00:00+00:00</time>
        <ele>1788.0</ele>
      </trkpt>
      <trkpt lat="42.767919" lon="0.577625">
        <time>1970-01-01T00:00:00+00:00</time>
        <ele>1788.0</ele>
      </trkpt>
      <trkpt lat="42.767912" lon="0.577584">
        <time>1970-01-01T00:00:00+00:00</time>
        <ele>1789.0</ele>
      </trkpt>
      <trkpt lat="42.768072" lon="0.576751">
        <time>1970-01-01T00:00:00+00:00</time>
        <ele>1796.0</ele>
      </trkpt>
      <trkpt lat="42.767952" lon="0.576648">
        <time>1970-01-01T00:00:00+00:00</time>
        <ele>1794.0</ele>
      </trkpt>
      <trkpt lat="42.76751" lon="0.576268">
        <time>1970-01-01T00:00:00+00:00</time>
        <ele>1789.0</ele>
      </trkpt>
      <trkpt lat="42.767368" lon="0.576173">
        <time>1970-01-01T00:00:00+00:00</time>
        <ele>1787.0</ele>
      </trkpt>
      <trkpt lat="42.767274" lon="0.576143">
        <time>1970-01-01T00:00:00+00:00</time>
        <ele>1786.0</ele>
      </trkpt>
      <trkpt lat="42.767178" lon="0.576147">
        <time>1970-01-01T00:00:00+00:00</time>
        <ele>1785.0</ele>
      </trkpt>
      <trkpt lat="42.767074" lon="0.576187">
        <time>1970-01-01T00:00:00+00:00</time>
        <ele>1784.0</ele>
      </trkpt>
      <trkpt lat="42.76698" lon="0.576255">
        <time>1970-01-01T00:00:00+00:00</time>
        <ele>1784.0</ele>
      </trkpt>
      <trkpt lat="42.766866" lon="0.576397">
        <time>1970-01-01T00:00:00+00:00</time>
        <ele>1783.0</ele>
      </trkpt>
      <trkpt lat="42.766807" lon="0.576306">
        <time>1970-01-01T00:00:00+00:00</time>
        <ele>1782.0</ele>
      </trkpt>
      <trkpt lat="42.766755" lon="0.576274">
        <time>1970-01-01T00:00:00+00:00</time>
        <ele>1781.0</ele>
      </trkpt>
      <trkpt lat="42.766654" lon="0.576273">
        <time>1970-01-01T00:00:00+00:00</time>
        <ele>1780.0</ele>
      </trkpt>
      <trkpt lat="42.766612" lon="0.57625">
        <time>1970-01-01T00:00:00+00:00</time>
        <ele>1780.0</ele>
      </trkpt>
      <trkpt lat="42.766565" lon="0.576131">
        <time>1970-01-01T00:00:00+00:00</time>
        <ele>1780.0</ele>
      </trkpt>
      <trkpt lat="42.766189" lon="0.576035">
        <time>1970-01-01T00:00:00+00:00</time>
        <ele>1785.0</ele>
      </trkpt>
      <trkpt lat="42.765918" lon="0.576007">
        <time>1970-01-01T00:00:00+00:00</time>
        <ele>1789.0</ele>
      </trkpt>
      <trkpt lat="42.765612" lon="0.576062">
        <time>1970-01-01T00:00:00+00:00</time>
        <ele>1792.0</ele>
      </trkpt>
      <trkpt lat="42.764535" lon="0.57664">
        <time>1970-01-01T00:00:00+00:00</time>
        <ele>1800.0</ele>
      </trkpt>
      <trkpt lat="42.764371" lon="0.576693">
        <time>1970-01-01T00:00:00+00:00</time>
        <ele>1802.0</ele>
      </trkpt>
      <trkpt lat="42.764026" lon="0.576705">
        <time>1970-01-01T00:00:00+00:00</time>
        <ele>1810.0</ele>
      </trkpt>
      <trkpt lat="42.764021" lon="0.576749">
        <time>1970-01-01T00:00:00+00:00</time>
        <ele>1809.0</ele>
      </trkpt>
      <trkpt lat="42.763614" lon="0.576901">
        <time>1970-01-01T00:00:00+00:00</time>
        <ele>1811.0</ele>
      </trkpt>
      <trkpt lat="42.763454" lon="0.577004">
        <time>1970-01-01T00:00:00+00:00</time>
        <ele>1811.0</ele>
      </trkpt>
      <trkpt lat="42.763454" lon="0.577004">
        <time>1970-01-01T00:00:00+00:00</time>
        <ele>1811.0</ele>
      </trkpt>
      <trkpt lat="42.763614" lon="0.576901">
        <time>1970-01-01T00:00:00+00:00</time>
        <ele>1811.0</ele>
      </trkpt>
      <trkpt lat="42.764021" lon="0.576749">
        <time>1970-01-01T00:00:00+00:00</time>
        <ele>1809.0</ele>
      </trkpt>
      <trkpt lat="42.764026" lon="0.576705">
        <time>1970-01-01T00:00:00+00:00</time>
        <ele>1810.0</ele>
      </trkpt>
      <trkpt lat="42.764371" lon="0.576693">
        <time>1970-01-01T00:00:00+00:00</time>
        <ele>1802.0</ele>
      </trkpt>
      <trkpt lat="42.764535" lon="0.57664">
        <time>1970-01-01T00:00:00+00:00</time>
        <ele>1800.0</ele>
      </trkpt>
      <trkpt lat="42.765612" lon="0.576062">
        <time>1970-01-01T00:00:00+00:00</time>
        <ele>1792.0</ele>
      </trkpt>
      <trkpt lat="42.765918" lon="0.576007">
        <time>1970-01-01T00:00:00+00:00</time>
        <ele>1789.0</ele>
      </trkpt>
      <trkpt lat="42.766189" lon="0.576035">
        <time>1970-01-01T00:00:00+00:00</time>
        <ele>1785.0</ele>
      </trkpt>
      <trkpt lat="42.766565" lon="0.576131">
        <time>1970-01-01T00:00:00+00:00</time>
        <ele>1780.0</ele>
      </trkpt>
      <trkpt lat="42.766612" lon="0.57625">
        <time>1970-01-01T00:00:00+00:00</time>
        <ele>1780.0</ele>
      </trkpt>
      <trkpt lat="42.766654" lon="0.576273">
        <time>1970-01-01T00:00:00+00:00</time>
        <ele>1780.0</ele>
      </trkpt>
      <trkpt lat="42.766755" lon="0.576274">
        <time>1970-01-01T00:00:00+00:00</time>
        <ele>1781.0</ele>
      </trkpt>
      <trkpt lat="42.766807" lon="0.576306">
        <time>1970-01-01T00:00:00+00:00</time>
        <ele>1782.0</ele>
      </trkpt>
      <trkpt lat="42.766866" lon="0.576397">
        <time>1970-01-01T00:00:00+00:00</time>
        <ele>1783.0</ele>
      </trkpt>
      <trkpt lat="42.76698" lon="0.576255">
        <time>1970-01-01T00:00:00+00:00</time>
        <ele>1784.0</ele>
      </trkpt>
      <trkpt lat="42.767074" lon="0.576187">
        <time>1970-01-01T00:00:00+00:00</time>
        <ele>1784.0</ele>
      </trkpt>
      <trkpt lat="42.767178" lon="0.576147">
        <time>1970-01-01T00:00:00+00:00</time>
        <ele>1785.0</ele>
      </trkpt>
      <trkpt lat="42.767274" lon="0.576143">
        <time>1970-01-01T00:00:00+00:00</time>
        <ele>1786.0</ele>
      </trkpt>
      <trkpt lat="42.767368" lon="0.576173">
        <time>1970-01-01T00:00:00+00:00</time>
        <ele>1787.0</ele>
      </trkpt>
      <trkpt lat="42.76751" lon="0.576268">
        <time>1970-01-01T00:00:00+00:00</time>
        <ele>1789.0</ele>
      </trkpt>
      <trkpt lat="42.767952" lon="0.576648">
        <time>1970-01-01T00:00:00+00:00</time>
        <ele>1794.0</ele>
      </trkpt>
      <trkpt lat="42.768072" lon="0.576751">
        <time>1970-01-01T00:00:00+00:00</time>
        <ele>1796.0</ele>
      </trkpt>
      <trkpt lat="42.767912" lon="0.577584">
        <time>1970-01-01T00:00:00+00:00</time>
        <ele>1789.0</ele>
      </trkpt>
      <trkpt lat="42.767919" lon="0.577625">
        <time>1970-01-01T00:00:00+00:00</time>
        <ele>1788.0</ele>
      </trkpt>
      <trkpt lat="42.767962" lon="0.577687">
        <time>1970-01-01T00:00:00+00:00</time>
        <ele>1788.0</ele>
      </trkpt>
    </trkseg>
  </trk>
</gpx>
